Showing default

JCSAT 18, 44868

Orbit data source: Space-Track

JCSAT 18, 44868 is a Japanese payload satellite in GEO that was launched on Tue, 17 Dec 2019 UTC via an FALCON 9 launch vehicle from the Air Force Eastern Test Range (AFETR). Payload-class satellites include a variety of spacecraft equipped with specific instruments for various scientific and technological missions. These include communications satellites like Starlink; space stations such as the ISS; scientific satellites like the Hubble; Earth observation satellites from companies like Planet Labs, Umbra, and HawkEye 360; GPS; miniature CubeSats for education and research; and military/defense satellites.

Not visible in the next 10 days
Identifier
44868, 2019-091A
Orbit
GEO
Country
Flag of JPJP / JPN
Related business
Manufacturer
Boeing/ES
Mission
Operational Commercial Communications
Bus & Motor
BSS-702MP, R-4D?
Mass
6,800 kg wet, ~3,500 kg dry
Launch date (UTC)
2019-12-17 (6 years ago)
Launch vehicle
FALCON 9
Launch site
Air Force Eastern Test Range (AFETR)
Object type
Payload
Rocket body
Debris
Shape & HBR
Box + 2 Pan, Unknown HBR
Radar Cross Section
56.564 m², Large (>1 m²)

Expand to show TLE details & history
Last TLE update: 18 hours ago

TLE from 18 hours ago
0 JCSAT 18
1 44868U 19091A   26034.53933609 -.00000209  00000-0  00000-0 0  9995
2 44868   0.0052 224.0047 0000385  76.0298 177.8368  1.00271025 22671
Epoch: 2026-02-03T12:56Z
TLE epoch observation values (Epoch: 2026-02-03T12:56:38.638Z)
Latitude
-0.00683°
Longitude
150.02941°
Altitude
35,787.929 km
Speed
3.075 km/s
True Right ascension
07h 51m 38s
True Declination
0° 00' 25"
Sunlit
Object was in daylight at epoch
Visualization orbit readout
Latitude
Unknown
Longitude
Unknown
Altitude
Unknown
Speed
Unknown
Apparent Right ascension
Unknown
Apparent Declination
Unknown
Sunlit
N/A
Visualization observer readout
Local Sidereal Time
08:27:52
Azimuth
Unknown
Elevation
Unknown
Doppler factor
Unknown
Orbital elements
Apogee altitude
35,789.502 km
Perigee altitude
35,786.255 km
Semi-major axis
42,166.015 km
Eccentricity
0.00004
Inclination
0.0052°
RAAN
224.0047°
Arg. of periapsis
76.0298°
True anomaly
177.83697°
Mean anomaly
177.8368°
Eccentric anomaly
177.83688°
Mean motion
0.25067 °/min
Orbital period
1,436.16 mins
BSTAR
0
Loading maneuver chart data...
Computing Atmospheric mass density...
Loading historical data...
Loading historical data...
Loading historical data...
Loading historical data...
Loading historical data...
Loading historical data...
Loading historical data...
Other satellites on launch #91 in the year 2019 (2019-12-17 UTC)

Documentation

Showing up to 5 results
|